Flag for U.S.A. Weather past 2 weeks in Ontario, California, U.S.A.

Now
85 °F

Scattered clouds.


Feels Like: 86 °F
Forecast: 71 / 94 °F
Wind: 8 mph from West

Location: Ontario International Airport

Current Time: Jul 30, 2015 at 12:04:28 PM

Latest Report: Jul 30, 2015 at 10:53 AM


Visibility: 8 mi

Pressure: 29.96 "Hg

Humidity: 50%

Dew point: 64 °F

Location of OntarioLocation

Historic Weather in Ontario — Graph

°F

Ontario temperature yesterday

Maximum temperature yesterday: 95 °F (at 1:53 PM)
Minimum temperature yesterday: 66 °F (at 4:53 AM)
Average temperature yesterday: 78 °F

Past Weeks' High & Low Weather Summary

 TemperatureHumidityPressure
High96 °F (Jul 17, 2:53 PM)93% (Jul 20, 3:53 AM)30.05 "Hg (Jul 20, 3:53 AM)
Low63 °F (Jul 16, 1:53 AM)18% (Jul 17, 2:53 PM)29.73 "Hg (Jul 17, 5:53 PM)
Average76 °F61%29.90 "Hg
* Reported Jul 15 10:53 AM — Jul 30 10:53 AM, Ontario, Weather by CustomWeather, © 2015

Note: Actual official high and low records may vary slightly from our data, if they occured in-between our weather recording intervals... More about our weather records

Advertising

Ontario weather history for previous 24 hours

 ConditionsComfort  
Time TempWeatherWind HumidityBarometerVisibility
10:53 AM
Thu, Jul 30
85 °FScattered clouds.8 mph50%29.96 "Hg8 mi
9:53 AM80 °FPartly sunny.6 mph58%29.96 "Hg7 mi
8:53 AM77 °FBroken clouds.3 mph62%29.96 "Hg7 mi
7:53 AM74 °FPartly sunny.No wind67%29.96 "Hg8 mi
6:53 AM73 °FPassing clouds.No wind69%29.94 "Hg9 mi
5:53 AM71 °FPassing clouds.No wind73%29.93 "Hg9 mi
4:53 AM71 °FClear.No wind73%29.93 "Hg9 mi
3:53 AM71 °FPassing clouds.5 mph73%29.92 "Hg9 mi
2:53 AM71 °FPassing clouds.No wind73%29.92 "Hg9 mi
1:53 AM72 °FPassing clouds.3 mph71%29.92 "Hg10 mi
12:53 AM71 °FPassing clouds.3 mph73%29.93 "Hg10 mi
11:53 PM
Wed, Jul 29
72 °FPassing clouds.6 mph71%29.94 "Hg10 mi
10:53 PM73 °FPassing clouds.6 mph69%29.94 "Hg10 mi
9:53 PM74 °FPassing clouds.12 mph67%29.94 "Hg10 mi
8:53 PM76 °FPassing clouds.7 mph62%29.92 "Hg10 mi
7:53 PM80 °FScattered clouds.10 mph54%29.88 "Hg10 mi
6:53 PM86 °FScattered clouds.14 mph45%29.85 "Hg10 mi
5:53 PM90 °FScattered clouds.13 mph39%29.85 "Hg10 mi
4:53 PM91 °FScattered clouds.15 mph39%29.83 "Hg10 mi
3:53 PM93 °FScattered clouds.14 mph37%29.83 "Hg10 mi
2:53 PM95 °FScattered clouds.15 mph35%29.85 "Hg10 mi
1:53 PM95 °FPassing clouds.14 mph34%29.85 "Hg10 mi
12:53 PM93 °FPassing clouds.9 mph34%29.87 "Hg10 mi
Weather by CustomWeather, © 2015

See weather overviewHow to use our weather pages